Simultaneous Nadir Overpasses (SNOs) Predictions

Prediction of SNOs between METOP-A and TERRA Satellite Orbit:

Table of predicted SNOs for the next 14.0 days since TLE Epoch: 7/20/2012
Index Date (METOP-A) Time (METOP-A) METOP-A Lat,Lon Date (TERRA) Time (TERRA) TERRA Lat,Lon Distance(km) Time Diff (sec)
1 07/21/2012 14:23:34 -81.31,-168.90 07/21/2012 14:24:07 -81.31,-168.87 0.48 33
2 07/21/2012 15:14:13 81.31, -0.95 07/21/2012 15:13:33 81.31, -1.07 2.04 40
3 07/24/2012 09:58:00 -81.31,-102.26 07/24/2012 09:58:20 -81.31,-102.36 1.76 20
4 07/24/2012 10:48:40 81.31, 65.30 07/24/2012 10:47:46 81.32, 65.40 1.72 54
5 07/27/2012 05:32:31 -81.31, -35.92 07/27/2012 05:32:34 -81.31, -35.94 0.38 3
6 07/27/2012 06:23:11 81.31, 131.65 07/27/2012 06:22:00 81.31, 131.79 2.38 71
7 07/30/2012 00:16:25 81.30,-137.32 07/30/2012 00:17:21 81.30,-137.19 2.13 56
8 07/30/2012 01:07:05 -81.31, 30.51 07/30/2012 01:06:48 -81.30, 30.40 2.10 17
9 08/01/2012 19:51:00 81.31, -70.42 08/01/2012 19:51:33 81.31, -70.58 2.80 33




NCC Satellite Simultaneous Nadir Overpasses (SNOs) Prediction Service
